This demonstration page uses our WeatherBlox Daily Observations layout. Learn more.

Left ArrowRight Arrow

34.02893, -84.19858

Hourly Observations for August 26, 2015

Temp ( °F °C ) Dew Point ( °F °C ) Humidity (%) Winds ( mph kmh ) Pressure ( in mb ) Visibility ( mi km ) Precip ( " mm )
12:53 am 00:53 Clear 67 19.4 55 12.8 66 66 NW 6 9 29.93 1013 10 16 0.00 0.00
1:53 am 01:53 Clear 65 18.3 55 12.8 70 70 NNW 5 7 29.92 1013 10 16 0.00 0.00
2:53 am 02:53 Clear 64 17.8 55 12.8 73 73 WNW 3 6 29.91 1013 10 16 0.00 0.00
3:53 am 03:53 Clear 63 17.2 55 12.8 76 76 NNW 3 6 29.90 1013 10 16 0.00 0.00
4:53 am 04:53 Clear 61 16.1 56 13.3 84 84 Calm 29.90 1013 10 16 0.00 0.00
5:53 am 05:53 Clear 60 15.6 57 13.9 90 90 Calm 29.91 1013 10 16 0.00 0.00
6:53 am 06:53 Clear 60 15.6 56 13.3 86 86 Calm 29.93 1013 10 16 0.00 0.00
7:53 am 07:53 Sunny 63 17.2 57 13.9 81 81 NW 3 6 29.95 1014 10 16 0.00 0.00
8:53 am 08:53 Sunny 67 19.4 58 14.4 73 73 NW 3 6 29.96 1015 10 16 0.00 0.00
9:53 am 09:53 Sunny 72 22.2 60 15.6 66 66 VRB 5 7 29.97 1015 10 16 0.00 0.00
10:53 am 10:53 Sunny 76 24.4 60 15.6 58 58 VRB 7 11 29.97 1015 10 16 0.00 0.00
11:53 am 11:53 Sunny 79 26.1 61 16.1 54 54 VRB 5 7 29.98 1015 10 16 0.00 0.00
12:53 pm 12:53 Sunny 81 27.2 62 16.7 53 53 NNE 7 11 29.97 1015 10 16 0.00 0.00
1:53 pm 13:53 Mostly Cloudy 82 27.8 64 17.8 55 55 NE 8 13 29.96 1015 10 16 0.00 0.00
2:53 pm 14:53 Mostly Cloudy 85 29.4 65 18.3 51 51 N 9 15 29.95 1014 10 16 0.00 0.00
3:53 pm 15:53 Mostly Cloudy 83 28.3 60 15.6 46 46 VRB 3 6 29.95 1014 10 16 0.00 0.00
4:53 pm 16:53 Mostly Cloudy 83 28.3 59 15 44 44 VRB 3 6 29.94 1014 10 16 0.00 0.00
5:53 pm 17:53 Mostly Cloudy 82 27.8 60 15.6 47 47 VRB 6 9 29.93 1014 10 16 0.00 0.00
6:53 pm 18:53 Mostly Sunny 82 27.8 60 15.6 47 47 N 7 11 29.92 1013 10 16 0.00 0.00
7:53 pm 19:53 Sunny 78 25.6 63 17.2 60 60 N 12 19 29.93 1014 10 16 0.00 0.00
8:53 pm 20:53 Clear 75 23.9 62 16.7 64 64 N 8 13 29.95 1014 10 16 0.00 0.00
9:53 pm 21:53 Clear 73 22.8 61 16.1 66 66 NNW 9 15 29.96 1015 10 16 0.00 0.00
10:53 pm 22:53 Clear 71 21.7 62 16.7 73 73 Calm 29.98 1015 10 16 0.00 0.00
11:53 pm 23:53 Clear 68 20 63 17.2 84 84 N 3 6 29.98 1015 10 16 0.00 0.00

Powered by AerisWeather